To NAV CANADA Home Page Login to a new session Search on AWWS site Feedback and Comments Disclaimer Vers la page française équivalente Tips FAQ What's new on the site To the Forecasts and Observations / NOTAM section To "File a Flight Plan" website Publications and other links Update of the User's profile FIC Telephone Numbers My Weather Data Folder Route Weather Data Regional Weather Data Local Weather Data To the Forecasts and Observations / NOTAM section
Request Generated 05/25/2017 at 01:12:25 UTC . Weather information available at that time is displayed.

METAR/TAF

KANGIQSUALUJJUAQ (GEORGES RIVER)/QC    

LWIS CYLU 250100Z AUTO 35005KT M03/M08 A3000=
LWIS CYLU 250000Z AUTO 33010KT M02/M08 A3000=
LWIS CYLU 242300Z AUTO 31009KT M02/M07 A2998=

CYLU - No TAF is issued for this station

Your time UTC time
Weather data provided by Environment Canada and NAV CANADA